Skip Page Navigation
NASA JPL Caltech
NASA Logo - Jet Propulsion Laboratory + View the NASA Portal
+ Center for Near-Earth Object Studies
JPL Home Earth Solar System Stars & Galaxies Technology
JPL Solar System Dynamics
BODIES ORBITS EPHEMERIDES TOOLS PHYSICAL DATA DISCOVERY FAQ SITE MAP
JPL Small-Body Database Browser
Search: [ help ]  
(2014 YS43)
Classification: Apollo [NEO]          SPK-ID: 3703263
Ephemeris | Orbit Diagram | Orbital Elements | Mission Design | Physical Parameters | Close-Approach Data ]

[ show orbit diagram ]
Orbital Elements at Epoch 2459000.5 (2020-May-31.0) TDB
Reference: JPL 11 (heliocentric ecliptic J2000)
 Element Value Uncertainty (1-sigma)   Units 
e .8238745456603995 0.00014164  
a 2.969936783100505 0.0019442 au
q .5230814652834679 7.8391e-05 au
i 12.89444983345968 0.0043841 deg
node 326.6594502428006 0.00066315 deg
peri 245.1485523700952 0.0034038 deg
M 7.111077431520777 0.45663 deg
tp 2458963.572309984156
(2020-Apr-24.07230998)
2.335 TDB
period 1869.473161236661
5.12
1.8357
0.005026
d
yr
n .1925676214371856 0.00018909 deg/d
Q 5.416792100917542 0.0035459 au
  Orbit Determination Parameters
   # obs. used (total)      43  
   data-arc span      26 days  
   first obs. used      2014-12-30  
   last obs. used      2015-01-25  
   planetary ephem.      DE431  
   SB-pert. ephem.      SB431-N16  
   condition code      7  
   norm. resid. RMS      .37777  
   source      ORB  
   producer      Otto Matic  
   solution date      2017-Apr-06 08:36:32  

Additional Information
 Earth MOID = .0785469 au 
 Jupiter MOID = .976181 au 
 T_jup = 2.587 
[ show covariance matrix ]

Ephemeris | Orbit Diagram | Orbital Elements | Mission Design | Physical Parameters | Close-Approach Data ]

Physical Parameter Table
Parameter Symbol Value Units Sigma Reference Notes
absolute magnitude H 20.2   n/a E2015A29  

[ show close-approach data ]
Ephemeris | Orbit Diagram | Orbital Elements | Mission Design | Physical Parameters | Close-Approach Data ]
ABOUT SSD CREDITS/AWARDS PRIVACY/COPYRIGHT GLOSSARY LINKS
FirstGov 2020-Aug-11 20:30 UT
(server date/time)  
NASA Home Page
Site Manager:   Ryan S. Park
Webmaster  Alan B. Chamberlin